{"data":{"norad_id":68992,"epoch":"2026-05-25T03:19:29.885376Z","epoch_age_seconds":77156,"freshness":"FRESH","line1":"1 68992U 26100N   26145.13854034  .00001469  00000+0  15281-3 0  9998","line2":"2 68992  97.7394  43.0135 0002474 194.3173 165.7975 14.91354899  3260","mean_motion":14.91354899,"eccentricity":0.0002474,"inclination_deg":97.7394,"raan_deg":43.0135,"arg_perigee_deg":194.3173,"mean_anomaly_deg":165.7975,"bstar":0.00015281,"rev_number":326,"period_min":96.55649376051,"perigee_km":591.98500607207,"apogee_km":595.43467588898,"semimajor_km":6971.8468409805,"source":"CELESTRAK","updated_at":"2026-05-25T13:38:08.809640Z"}}